This demonstration page uses our WeatherBlox Daily Observations layout. Learn more.

Left ArrowRight Arrow

30.21309, -93.2044

Hourly Observations for May 21, 2015

Temp ( °F °C ) Dew Point ( °F °C ) Humidity (%) Winds ( mph kmh ) Pressure ( in mb ) Visibility ( mi km ) Precip ( " mm )
12:15 am 00:15 Clear 76 24.6 73 22.7 89 89 Calm 30.03 1017 10 16 0.00 0.00
12:35 am 00:35 Clear 73 22.5 72 22 97 97 Calm 30.03 1017 10 16 0.00 0.00
12:55 am 00:55 Clear 73 22.7 72 22.3 98 98 Calm 30.00 1016 10 16 0.00 0.00
1:15 am 01:15 Clear 73 23 72 22.1 95 95 Calm 30.03 1017 10 16 0.00 0.00
1:35 am 01:35 Clear 73 22.6 72 22 96 96 Calm 30.03 1017 10 16 0.00 0.00
1:55 am 01:55 Clear 73 22.5 72 22 97 97 Calm 30.00 1016 7 11 0.00 0.00
2:15 am 02:15 Partly Cloudy 73 22.5 72 22.1 98 98 Calm 30.03 1017 7 11 0.00 0.00
2:35 am 02:35 Mostly Cloudy 73 22.9 72 22.3 96 96 Calm 30.00 1016 10 16 0.00 0.00
2:55 am 02:55 Partly Cloudy 72 22.4 72 22 98 98 Calm 30.03 1017 7 11 0.00 0.00
3:15 am 03:15 Partly Cloudy with Mist and Fog 72 22.4 72 22.2 99 99 Calm 30.03 1017 5 8 0.00 0.00
3:35 am 03:35 Mostly Cloudy 73 22.6 72 22.2 98 98 Calm 30.00 1016 10 16 0.00 0.00
3:55 am 03:55 Partly Cloudy with Mist and Fog 73 22.5 72 22.1 98 98 Calm 30.00 1016 5 8 0.00 0.00
4:15 am 04:15 Clear 72 22.2 71 21.8 98 98 Calm 30.00 1016 7 11 0.00 0.00
4:35 am 04:35 Clear with Mist and Fog 72 22.2 72 22 99 99 Calm 30.03 1017 5 8 0.00 0.00
4:55 am 04:55 Partly Cloudy 73 22.5 72 22.1 98 98 Calm 30.00 1016 7 11 0.00 0.00
5:15 am 05:15 Mostly Cloudy with Mist and Fog 72 22 71 21.5 97 97 Calm 30.00 1016 5 8 0.00 0.00
6:00 am 06:00 Partly Cloudy 72 22 72 22 100 100 Calm 30.00 1016 10 16 0.00 0.00
6:55 am 06:55 Partly Cloudy with Mist and Fog 72 22 72 22 100 100 Calm 30.00 1016 6 10 0.00 0.00
7:50 am 07:50 Partly Cloudy with Mist and Fog 75 24 73 23 94 94 Calm 30.03 1017 6 10 0.00 0.00
8:45 am 08:45 Partly Cloudy 79 26 75 24 89 89 Calm 30.06 1018 7 11 0.00 0.00
9:15 am 09:15 Mostly Cloudy 81 27 73 23 79 79 Calm 30.06 1018 7 11 0.00 0.00
10:55 am 10:55 Mostly Cloudy with Thunderstorms 84 29 73 23 70 70 VRB 5 7 30.06 1018 10 16 0.00 0.00
11:46 am 11:46 Mostly Cloudy with Thunderstorms 82 28 72 22 70 70 VRB 6 9 30.06 1018 7 11 0.00 0.00
12:45 pm 12:45 Mostly Cloudy with Thunderstorms 79 26 73 23 84 84 E 10 17 30.06 1018 6 10 0.00 0.00
12:56 pm 12:56 Mostly Cloudy with Thunderstorms 79 26 73 23 84 84 NNE 15 24 30.06 1018 6 10 0.00 0.00
2:50 pm 14:50 Mostly Cloudy with Light Rain 66 19 66 19 100 100 NNE 5 7 30.09 1019 10 16 0.00 0.00
3:50 pm 15:50 Cloudy 68 20 66 19 94 94 NW 5 7 30.09 1019 10 16 0.00 0.00
4:50 pm 16:50 Cloudy 70 21 68 20 94 94 NNW 5 7 30.09 1019 10 16 0.00 0.00
5:50 pm 17:50 Mostly Cloudy 70 21 68 20 94 94 NE 5 7 30.03 1017 10 16 0.00 0.00
6:50 pm 18:50 Mostly Cloudy 72 22 68 20 88 88 NNE 5 7 30.06 1018 10 16 0.00 0.00
7:50 pm 19:50 Partly Cloudy 70 21 66 19 88 88 NE 5 7 30.06 1018 10 16 0.00 0.00
8:30 pm 20:30 Mostly Clear 70 21 66 19 88 88 N 3 6 30.06 1018 10 16 0.00 0.00
8:50 pm 20:50 Mostly Clear 70 21 66 19 88 88 N 3 6 30.06 1018 10 16 0.00 0.00
9:50 pm 21:50 Mostly Clear 70 21 66 19 88 88 NNE 6 9 30.09 1019 10 16 0.00 0.00
10:15 pm 22:15 Clear 68 20.1 65 18.6 91 91 NNE 6 9 30.09 1019 10 16 0.00 0.00
10:35 pm 22:35 Clear 68 20 65 18.6 92 92 NNE 7 11 30.12 1020 10 16 0.00 0.00
10:55 pm 22:55 Clear 68 20 65 18.6 92 92 NE 6 9 30.12 1020 10 16 0.00 0.00
11:15 pm 23:15 Mostly Cloudy 68 19.9 65 18.6 92 92 NE 7 11 30.12 1020 10 16 0.00 0.00
11:35 pm 23:35 Cloudy 68 20 66 18.8 93 93 NNE 7 11 30.12 1020 10 16 0.00 0.00
11:55 pm 23:55 Cloudy 67 19.3 64 18 92 92 NNE 13 20 30.12 1020 10 16 0.00 0.00

Powered by AerisWeather